Location: ????????
(55.0559°N, 39.1270°E)
Time: 18:18:55
(UTC+00:00)

NOSS 2-1 (E) - Pass Details

Date: 15 November 2025
Orbit: 385 x 1749 km, 63.3° (Epoch: 07 May)

Event Time Altitude Azimuth Distance (km) Brightness Sun altitude
Exits shadow 03:16:18 21° 325° (NW) 935 4.1 -13.9°
Maximum altitude 03:16:53 23° 344° (NNW) 895 4.1 -13.9°
Drops below altitude 10° 03:19:24 10° 39° (NE) 1,439 5.8 -13.5°
Sets 03:21:46 0° 55° (NE) 2,359 7.2 -13.2°
